Location: Bettgenhausen
(50.6463°N, 7.5681°E)
Time: 06:33:32
(UTC+00:00)

STARLINK-64 - Pass Details

Date: 27 February 2020
Orbit: 450 x 459 km, 53.0° (Epoch: 10 April)

Event Time Altitude Azimuth Distance (km) Brightness Sun altitude
Rises 17:48:56 0° 273° (W) 2,471 9.3 -7.5°
Reaches altitude 10° 17:51:06 10° 277° (W) 1,599 7.6 -7.8°
Maximum altitude 17:54:39 57° 357° (N) 544 3.6 -8.4°
Enters shadow 17:57:56 12° 77° (ENE) 1,488 5.2 -8.9°
